EW2874 Weather Reports


Display with metric or nautical units.
time (UTC)temp
F
wind
direction
speed
MPH
gust
MPH
rain 1hr
in
rain 24hr
in
rain mn
in
humidity
%
barometer
mb
20180622182733 66 284 6.0 9.0 0.00 0.01 0.00 87 1010.6
20180622182318 66 295 6.0 9.0 0.00 0.01 0.00 87 1009.8
20180622182232 66 287 6.0 9.0 0.00 0.01 0.00 87 1010.6
20180622181732 66 288 5.0 8.0 0.00 0.01 0.00 86 1010.6
20180622181232 66 288 5.0 8.0 0.00 0.01 0.00 87 1010.6
20180622180810 65 12 5.0 9.0 0.00 0.01 0.00 87 1009.8
20180622180732 66 323 5.0 9.0 0.00 0.01 0.00 87 1010.6
20180622180237 66 316 6.0 10.0 0.00 0.01 0.00 88 1010.6
20180622175730 65 301 6.0 10.0 0.00 0.01 0.00 88 1010.5
20180622175244 65 312 5.0 9.0 0.00 0.01 0.00 88 1009.7
20180622175230 65 308 6.0 9.0 0.00 0.01 0.00 88 1010.5
20180622174730 65 355 7.0 11.0 0.00 0.01 0.00 88 1010.6
20180622174235 65 331 6.0 11.0 0.00 0.01 0.00 88 1010.5
20180622173740 64 327 6.0 10.0 0.00 0.01 0.00 88 1009.7
20180622173732 65 311 6.0 11.0 0.00 0.01 0.00 88 1010.5
20180622173230 65 355 6.0 11.0 0.00 0.01 0.00 88 1010.6
20180622172731 65 328 7.0 11.0 0.00 0.01 0.00 88 1010.6
20180622172225 65 327 7.0 12.0 0.00 0.01 0.00 87 1010.8
20180622172148 64 324 8.0 12.0 0.00 0.01 0.00 87 1010.0
20180622171716 65 355 7.0 12.0 0.00 0.01 0.00 87 1010.7
20180622171156 65 5 7.0 12.0 0.00 0.01 0.00 87 1010.7
20180622170640 65 329 8.0 12.0 0.00 0.01 0.00 87 1010.8
20180622170614 65 344 8.0 12.0 0.00 0.01 0.00 87 1010.1
20180622170138 65 346 8.0 12.0 0.00 0.01 0.00 87 1010.9
20180622165614 65 336 6.0 12.0 0.00 0.01 0.00 88 1010.8
20180622165110 65 355 7.0 9.0 0.00 0.01 0.00 89 1010.8
20180622165044 64 360 6.0 9.0 0.00 0.02 0.00 89 1010.0
20180622164609 64 5 8.0 11.0 0.00 0.01 0.00 88 1010.8
20180622164108 64 332 8.0 12.0 0.00 0.01 0.00 88 1010.9
20180622163605 64 340 8.0 12.0 0.00 0.01 0.00 88 1010.9
20180622163536 64 335 9.0 12.0 0.00 0.02 0.00 88 1010.1
20180622163105 64 316 8.0 11.0 0.00 0.01 0.00 88 1010.9
20180622163033 64 323 5.0 11.0 0.00 0.02 0.00 88 1010.1
20180622162540 64 350 7.0 11.0 0.00 0.01 0.00 88 1010.9
20180622162032 64 309 7.0 11.0 0.00 0.01 0.00 89 1011.0
20180622161532 64 325 9.0 12.0 0.00 0.01 0.00 89 1010.9
20180622161021 64 300 9.0 12.0 0.00 0.01 0.00 89 1010.9
20180622160955 63 298 9.0 12.0 0.00 0.02 0.00 89 1010.1
20180622160521 64 305 9.0 12.0 0.00 0.01 0.00 89 1010.8
20180622160017 64 311 9.0 12.0 0.00 0.02 0.00 89 1010.7
20180622155523 63 304 8.0 12.0 0.00 0.02 0.00 89 1010.7
20180622155448 63 340 8.0 12.0 0.00 0.02 0.00 89 1009.9
20180622154953 63 318 8.0 12.0 0.00 0.02 0.00 90 1010.7
20180622154446 63 306 8.0 10.0 0.00 0.02 0.00 89 1010.7
20180622153950 63 286 8.0 11.0 0.00 0.02 0.00 89 1010.7
20180622153933 63 308 6.0 11.0 0.00 0.02 0.00 89 1009.9
20180622153447 63 318 7.0 10.0 0.00 0.02 0.00 90 1010.7
20180622152943 63 315 7.0 10.0 0.00 0.02 0.00 89 1010.7
20180622152424 63 317 7.0 10.0 0.00 0.02 0.00 90 1010.6
20180622152400 63 327 7.0 10.0 0.00 0.02 0.00 89 1009.9
20180622151933 63 319 6.0 10.0 0.00 0.02 0.00 90 1010.5
20180622151424 63 321 6.0 10.0 0.00 0.02 0.00 90 1010.6
20180622150929 63 291 6.0 9.0 0.00 0.02 0.00 91 1010.5
20180622150853 62 287 5.0 8.0 0.00 0.02 0.00 91 1009.8
20180622150425 63 328 6.0 9.0 0.00 0.02 0.00 91 1010.6
20180622145903 62 340 6.0 9.0 0.00 0.02 0.00 91 1010.6
20180622145352 62 328 7.0 10.0 0.00 0.02 0.00 91 1010.6
20180622145312 62 304 7.0 10.0 0.00 0.02 0.00 91 1009.9
20180622144854 62 295 7.0 10.0 0.00 0.02 0.00 91 1010.7
20180622144351 62 308 6.0 9.0 0.00 0.02 0.00 91 1010.7
20180622143850 62 275 6.0 9.0 0.00 0.02 0.00 91 1010.7
20180622143816 62 288 6.0 9.0 0.00 0.02 0.00 91 1010.0
20180622143346 62 290 5.0 8.0 0.00 0.02 0.00 92 1010.7
20180622142844 62 310 5.0 8.0 0.00 0.02 0.00 91 1010.8
20180622142347 62 287 5.0 8.0 0.00 0.02 0.00 92 1010.8
20180622142310 62 296 4.0 7.0 0.00 0.02 0.00 91 1010.1
20180622141842 62 285 7.0 10.0 0.00 0.02 0.00 91 1010.9
20180622141812 62 309 5.0 10.0 0.00 0.02 0.00 91 1010.2
20180622141342 62 306 7.0 10.0 0.00 0.02 0.00 91 1010.7
20180622140840 62 300 7.0 10.0 0.00 0.02 0.00 91 1010.7
20180622140337 62 315 7.0 10.0 0.00 0.02 0.00 91 1010.6
20180622135839 62 300 6.0 9.0 0.00 0.02 0.00 91 1010.6
20180622135337 62 313 6.0 10.0 0.00 0.02 0.00 91 1010.5
20180622135244 62 317 4.0 10.0 0.00 0.02 0.00 91 1009.8
20180622134833 62 329 6.0 10.0 0.00 0.02 0.00 91 1010.5
20180622134334 62 355 5.0 9.0 0.00 0.02 0.00 91 1010.4
20180622133834 62 317 6.0 9.0 0.00 0.02 0.00 91 1010.2
20180622133731 61 325 4.0 9.0 0.00 0.02 0.00 91 1009.5
20180622133337 62 315 6.0 9.0 0.00 0.02 0.00 91 1010.2
20180622132829 62 325 6.0 10.0 0.00 0.02 0.00 92 1010.1
20180622132334 62 333 6.0 10.0 0.00 0.02 0.00 92 1010.0
20180622132228 61 313 6.0 10.0 0.00 0.02 0.00 92 1009.2
20180622131826 62 338 6.0 10.0 0.00 0.02 0.00 92 1009.9
20180622131325 62 348 5.0 7.0 0.00 0.02 0.00 92 1009.9
20180622131226 61 334 5.0 7.0 0.00 0.02 0.00 92 1009.0
20180622130822 62 355 6.0 10.0 0.00 0.02 0.00 92 1009.8
20180622130319 62 350 7.0 10.0 0.00 0.02 0.00 92 1009.8
20180622125821 61 11 7.0 11.0 0.00 0.02 0.00 92 1009.8
20180622125331 61 348 7.0 11.0 0.00 0.02 0.00 92 1009.6
20180622125234 61 5 7.0 11.0 0.00 0.03 0.00 92 1008.8
20180622124829 61 5 7.0 10.0 0.00 0.02 0.00 92 1009.7
20180622124328 61 11 6.0 10.0 0.00 0.02 0.00 92 1009.6
20180622123832 61 344 6.0 10.0 0.00 0.02 0.00 92 1009.7
20180622123726 61 355 5.0 10.0 0.00 0.03 0.00 92 1008.9
20180622123323 61 355 7.0 10.0 0.00 0.02 0.00 92 1009.7
20180622122822 61 5 7.0 11.0 0.00 0.02 0.00 92 1009.7
20180622122322 61 345 6.0 11.0 0.00 0.02 0.00 92 1009.7
20180622122211 61 345 7.0 10.0 0.00 0.03 0.00 92 1008.9
20180622121819 61 325 6.0 11.0 0.00 0.02 0.00 92 1009.8
20180622121318 61 339 6.0 11.0 0.00 0.02 0.00 92 1009.8
20180622120817 61 345 6.0 10.0 0.00 0.02 0.00 92 1009.8
20180622120658 61 328 6.0 10.0 0.00 0.03 0.00 92 1008.9
20180622120317 61 325 7.0 11.0 0.00 0.02 0.00 92 1009.7
20180622115814 61 351 7.0 12.0 0.00 0.03 0.00 92 1009.8
20180622115313 61 343 6.0 12.0 0.00 0.03 0.00 92 1009.8
20180622115203 61 338 6.0 12.0 0.00 0.03 0.00 92 1009.0
20180622114818 61 324 6.0 10.0 0.00 0.03 0.00 92 1009.8
20180622114313 61 329 7.0 10.0 0.00 0.03 0.00 92 1009.7
20180622113812 62 325 8.0 13.0 0.00 0.03 0.00 92 1009.6
20180622113651 61 344 6.0 13.0 0.00 0.03 0.00 92 1008.6
20180622113309 62 355 8.0 13.0 0.00 0.03 0.00 92 1009.4
20180622112803 62 32 6.0 10.0 0.00 0.03 0.00 92 1009.4
20180622112305 62 30 7.0 12.0 0.00 0.03 0.00 92 1009.5
20180622112137 61 340 5.0 12.0 0.00 0.03 0.00 92 1008.6
20180622111801 62 0 8.0 12.0 0.00 0.03 0.00 92 1009.5
20180622111303 62 5 8.0 12.0 0.00 0.03 0.00 92 1009.6
20180622110801 62 0 8.0 12.0 0.00 0.03 0.00 92 1009.5
20180622110648 62 350 8.0 12.0 0.00 0.03 0.00 92 1008.6
20180622110301 62 340 8.0 11.0 0.00 0.03 0.00 92 1009.4
20180622105800 62 349 8.0 11.0 0.00 0.03 0.00 92 1009.5
20180622105259 62 355 7.0 11.0 0.00 0.03 0.00 92 1009.5
20180622105132 62 330 6.0 10.0 0.00 0.03 0.00 93 1008.7
20180622104759 62 355 7.0 10.0 0.00 0.03 0.00 92 1009.5
20180622104304 62 323 6.0 9.0 0.00 0.03 0.00 92 1009.5
20180622103800 63 351 7.0 11.0 0.00 0.03 0.00 92 1009.5
20180622103636 62 339 6.0 11.0 0.00 0.03 0.00 92 1008.6
20180622103256 63 355 8.0 12.0 0.00 0.03 0.00 92 1009.3
20180622102756 63 0 6.0 12.0 0.00 0.03 0.00 92 1009.3
20180622102256 63 339 6.0 12.0 0.00 0.03 0.00 92 1009.3
20180622102119 63 348 5.0 12.0 0.00 0.03 0.00 92 1008.4
20180622101756 63 345 8.0 12.0 0.00 0.03 0.00 92 1009.2
20180622101254 63 319 8.0 11.0 0.00 0.03 0.00 92 1009.3
20180622100753 63 313 7.0 10.0 0.00 0.03 0.00 92 1009.2
20180622100550 63 327 7.0 10.0 0.00 0.03 0.00 92 1008.2
20180622100253 63 316 6.0 9.0 0.00 0.03 0.00 92 1009.1
20180622095750 63 340 7.0 12.0 0.00 0.03 0.00 92 1009.0
20180622095542 63 336 5.0 12.0 0.00 0.03 0.00 92 1008.1
20180622095249 63 342 9.0 13.0 0.00 0.03 0.00 92 1009.0
20180622094751 64 333 8.0 13.0 0.00 0.03 0.00 92 1009.1
20180622094249 64 342 8.0 11.0 0.00 0.03 0.00 93 1009.0
20180622093749 64 319 9.0 12.0 0.00 0.03 0.00 93 1009.1
20180622093537 64 286 8.0 12.0 0.00 0.03 0.00 93 1008.2
20180622093248 64 344 8.0 14.0 0.00 0.03 0.00 93 1009.1
20180622092752 64 355 7.0 14.0 0.00 0.03 0.00 93 1009.1
20180622092247 64 332 6.0 10.0 0.00 0.03 0.00 93 1009.0
20180622092017 64 335 5.0 10.0 0.00 0.03 0.00 93 1008.0
20180622091745 64 336 6.0 10.0 0.00 0.03 0.00 93 1009.0
20180622091245 64 346 6.0 10.0 0.00 0.03 0.00 93 1008.9
20180622090745 64 319 7.0 13.0 0.00 0.03 0.00 93 1008.9
20180622090506 64 18 6.0 13.0 0.00 0.03 0.00 93 1008.0
20180622090245 65 0 7.0 13.0 0.00 0.03 0.00 93 1008.9
20180622085745 65 355 7.0 10.0 0.00 0.03 0.00 93 1009.0
20180622085243 65 5 8.0 13.0 0.00 0.03 0.00 93 1008.9
20180622084949 64 348 7.0 13.0 0.00 0.03 0.00 93 1008.0
20180622084743 65 345 8.0 13.0 0.00 0.03 0.00 93 1008.8
20180622084243 65 336 8.0 12.0 0.00 0.03 0.00 93 1008.9
20180622083743 65 330 9.0 14.0 0.00 0.03 0.00 93 1008.9
20180622083443 64 5 7.0 14.0 0.00 0.03 0.00 93 1007.9
20180622083242 65 339 8.0 14.0 0.00 0.03 0.00 93 1008.8
20180622082743 65 332 8.0 12.0 0.00 0.03 0.00 93 1008.8
20180622082245 65 336 8.0 13.0 0.00 0.03 0.00 93 1008.8
20180622081932 65 327 7.0 13.0 0.00 0.03 0.00 93 1007.9
20180622081743 65 355 8.0 13.0 0.00 0.03 0.00 93 1008.8
20180622081244 65 332 8.0 12.0 0.00 0.03 0.00 93 1008.7
20180622080743 65 325 8.0 11.0 0.00 0.03 0.00 94 1008.7
20180622080426 65 348 6.0 14.0 0.00 0.03 0.00 94 1007.8
20180622080245 65 340 8.0 14.0 0.00 0.03 0.00 93 1008.6
20180622075746 65 340 8.0 14.0 0.00 0.03 0.00 93 1008.5
20180622075245 65 338 7.0 12.0 0.00 0.03 0.00 93 1008.6
20180622074919 65 346 8.0 12.0 0.00 0.03 0.00 93 1007.6
20180622074746 65 331 7.0 12.0 0.00 0.03 0.00 94 1008.6
20180622074254 66 320 8.0 12.0 0.00 0.03 0.00 93 1008.6
20180622073748 66 337 8.0 13.0 0.00 0.03 0.00 93 1008.6
20180622073411 65 323 7.0 13.0 0.00 0.03 0.00 93 1007.7
20180622073245 66 336 8.0 13.0 0.00 0.03 0.00 93 1008.6
20180622072752 66 340 8.0 10.0 0.00 0.03 0.00 93 1008.6
20180622072240 66 348 7.0 10.0 0.00 0.03 0.00 93 1008.6
20180622071855 65 337 7.0 10.0 0.00 0.03 0.00 93 1007.7
20180622071742 66 317 7.0 10.0 0.00 0.03 0.00 93 1008.6
20180622071237 66 340 7.0 9.0 0.00 0.03 0.00 93 1008.6
20180622070735 66 339 7.0 11.0 0.00 0.03 0.00 94 1008.5
20180622070405 65 324 7.0 11.0 0.00 0.03 0.00 94 1007.7
20180622070233 66 321 7.0 11.0 0.00 0.03 0.00 94 1008.6
20180622065734 66 334 7.0 10.0 0.00 0.03 0.00 94 1008.5
20180622065233 66 321 6.0 9.0 0.00 0.03 0.00 93 1008.6
20180622064841 66 319 6.0 10.0 0.00 0.03 0.00 93 1007.6
20180622064740 66 307 6.0 10.0 0.00 0.03 0.00 93 1008.5
20180622064234 66 317 7.0 10.0 0.00 0.03 0.00 93 1008.5
20180622063821 66 339 6.0 9.0 0.00 0.03 0.00 93 1007.6
20180622063733 66 333 7.0 11.0 0.00 0.03 0.00 93 1008.5
20180622063236 66 323 8.0 11.0 0.00 0.03 0.00 93 1008.5
20180622062730 66 321 8.0 10.0 0.00 0.03 0.00 93 1008.4
20180622062231 66 337 8.0 10.0 0.00 0.03 0.00 93 1008.5
20180622061755 66 338 8.0 10.0 0.00 0.03 0.00 93 1007.7
20180622061736 66 331 8.0 10.0 0.00 0.03 0.00 93 1008.6
20180622061228 66 348 7.0 12.0 0.00 0.03 0.00 93 1008.5
20180622060735 66 333 7.0 12.0 0.00 0.03 0.00 93 1008.5
20180622060732 66 326 8.0 12.0 0.00 0.03 0.00 93 1007.6
20180622060230 66 333 7.0 12.0 0.00 0.03 0.00 93 1008.6
20180622055731 66 340 7.0 11.0 0.00 0.03 0.00 93 1008.6
20180622055228 66 0 7.0 11.0 0.00 0.03 0.00 93 1008.5
20180622055158 66 344 7.0 11.0 0.00 0.03 0.00 93 1007.6
20180622054711 66 327 7.0 11.0 0.00 0.03 0.00 93 1008.5
20180622054209 66 337 7.0 11.0 0.00 0.03 0.00 93 1008.5
20180622053702 66 341 7.0 11.0 0.00 0.03 0.00 93 1008.4
20180622053635 66 349 8.0 11.0 0.00 0.03 0.00 93 1007.5
20180622053159 66 355 7.0 10.0 0.00 0.03 0.00 93 1008.4
20180622052653 67 350 7.0 11.0 0.00 0.03 0.00 93 1008.4
20180622052201 67 5 7.0 11.0 0.00 0.03 0.00 93 1008.4
20180622052124 66 17 5.0 11.0 0.00 0.03 0.00 93 1007.5
20180622051636 67 346 8.0 13.0 0.00 0.03 0.00 93 1008.4
20180622051133 67 345 7.0 14.0 0.00 0.03 0.00 93 1008.4
20180622050628 67 343 7.0 13.0 0.00 0.03 0.00 93 1008.3
20180622050601 66 360 7.0 13.0 0.00 0.03 0.00 93 1007.4
20180622050113 67 355 7.0 12.0 0.00 0.03 0.00 93 1008.3
20180622045609 67 338 8.0 12.0 0.00 0.03 0.03 93 1008.4
20180622045107 66 346 8.0 12.0 0.00 0.03 0.03 93 1008.4
20180622045044 66 322 8.0 12.0 0.00 0.03 0.03 93 1007.5
20180622044614 67 338 8.0 12.0 0.00 0.03 0.03 93 1008.4
20180622044058 67 0 8.0 13.0 0.00 0.03 0.03 93 1008.4
20180622043603 66 5 8.0 13.0 0.00 0.03 0.03 93 1008.4
20180622043528 66 345 7.0 13.0 0.00 0.03 0.03 93 1007.5
20180622043057 66 332 7.0 16.0 0.00 0.03 0.03 93 1008.4
20180622042555 66 342 7.0 16.0 0.01 0.03 0.03 93 1008.4
20180622042458 66 355 7.0 11.0 0.01 0.03 0.03 93 1007.5
20180622042057 66 333 8.0 11.0 0.01 0.03 0.03 93 1008.4
20180622041552 66 331 8.0 12.0 0.01 0.03 0.03 93 1008.4
20180622041056 66 334 7.0 12.0 0.01 0.03 0.03 92 1008.4
20180622040550 66 319 8.0 10.0 0.01 0.03 0.03 92 1008.5
20180622040509 66 338 7.0 10.0 0.01 0.03 0.03 92 1007.6
20180622040101 67 323 8.0 12.0 0.01 0.03 0.03 92 1008.5
20180622035604 67 348 8.0 12.0 0.01 0.03 0.03 91 1008.5
20180622035058 67 330 8.0 13.0 0.01 0.03 0.03 91 1008.5
20180622035003 66 351 8.0 13.0 0.01 0.03 0.03 91 1007.6
20180622034556 67 335 8.0 13.0 0.01 0.03 0.03 91 1008.5
20180622034048 67 338 8.0 12.0 0.01 0.03 0.03 91 1008.5
20180622033550 67 312 7.0 11.0 0.01 0.03 0.03 91 1008.6
20180622033449 66 333 8.0 11.0 0.01 0.03 0.03 91 1007.7
20180622033051 67 323 6.0 9.0 0.01 0.03 0.03 91 1008.6
20180622032547 67 327 6.0 9.0 0.00 0.02 0.02 91 1008.5
20180622032050 67 313 6.0 8.0 0.00 0.02 0.02 91 1008.4
20180622031940 67 311 5.0 8.0 0.00 0.02 0.02 91 1007.6
20180622031543 67 293 6.0 8.0 0.00 0.02 0.02 90 1008.4
20180622031047 67 296 5.0 8.0 0.00 0.02 0.02 90 1008.3
20180622030542 67 297 5.0 6.0 0.00 0.02 0.02 90 1008.3
20180622030443 66 303 4.0 6.0 0.00 0.02 0.02 89 1007.3
20180622030039 67 297 5.0 6.0 0.00 0.02 0.02 89 1008.1
20180622025544 67 309 4.0 6.0 0.00 0.02 0.02 89 1008.0
20180622025042 67 315 4.0 5.0 0.00 0.02 0.02 88 1007.8
20180622024923 67 323 3.0 5.0 0.00 0.02 0.02 88 1007.0
20180622024539 67 287 3.0 5.0 0.00 0.02 0.02 88 1007.7
20180622024046 67 290 3.0 5.0 0.00 0.02 0.02 87 1007.6
20180622023546 67 273 2.0 5.0 0.00 0.02 0.02 87 1007.6
20180622023406 67 271 2.0 5.0 0.00 0.02 0.02 87 1006.7
20180622023042 67 275 2.0 4.0 0.00 0.02 0.02 87 1007.5
20180622022540 67 282 3.0 4.0 0.00 0.02 0.02 86 1007.5
20180622022030 68 291 4.0 5.0 0.00 0.02 0.02 86 1007.6
20180622021801 67 296 3.0 5.0 0.00 0.02 0.02 85 1006.6
20180622021546 68 302 4.0 5.0 0.00 0.02 0.02 85 1007.4
20180622021022 68 288 4.0 5.0 0.00 0.02 0.02 84 1007.4
20180622020519 69 291 4.0 5.0 0.00 0.02 0.02 83 1007.4
20180622020146 68 294 3.0 5.0 0.00 0.02 0.02 83 1006.6
20180622020019 69 290 4.0 5.0 0.00 0.02 0.02 82 1007.4
20180622015526 69 306 4.0 7.0 0.00 0.02 0.02 82 1007.4
20180622015109 69 323 3.0 7.0 0.00 0.02 0.02 81 1006.4
20180622015025 69 325 5.0 7.0 0.00 0.02 0.02 81 1007.3
20180622014549 70 339 5.0 9.0 0.00 0.02 0.02 81 1007.2
20180622014021 70 336 6.0 9.0 0.00 0.02 0.02 80 1007.2
20180622013553 70 340 5.0 10.0 0.00 0.02 0.02 79 1006.2
20180622013517 70 355 6.0 10.0 0.00 0.02 0.02 79 1007.1
20180622013017 70 5 7.0 10.0 0.00 0.02 0.02 79 1007.1
20180622012539 71 294 7.0 10.0 0.00 0.02 0.02 79 1007.0
20180622011953 71 329 8.0 11.0 0.00 0.02 0.02 78 1006.9
20180622011924 70 329 6.0 11.0 0.00 0.02 0.02 78 1006.0
20180622011520 71 335 7.0 13.0 0.00 0.02 0.02 78 1006.8
20180622010946 71 333 6.0 13.0 0.00 0.02 0.02 79 1006.9
20180622010502 71 355 7.0 10.0 0.00 0.02 0.02 80 1006.9
20180622010413 70 355 5.0 10.0 0.00 0.02 0.02 80 1006.0
20180622005936 71 326 7.0 10.0 0.00 0.02 0.02 80 1006.9
20180622005440 71 328 7.0 9.0 0.00 0.02 0.02 80 1006.9
20180622004910 70 328 7.0 10.0 0.00 0.02 0.02 80 1006.9
20180622004827 70 329 6.0 10.0 0.00 0.02 0.02 80 1006.0
20180622004415 70 316 8.0 13.0 0.00 0.02 0.02 79 1006.8
20180622003918 70 319 9.0 13.0 0.00 0.02 0.02 79 1006.8
20180622003417 70 325 10.0 16.0 0.00 0.02 0.02 78 1006.9
20180622003315 70 315 8.0 16.0 0.00 0.02 0.02 78 1006.0
20180622002918 70 308 9.0 16.0 0.00 0.02 0.02 78 1006.8
20180622002414 71 302 9.0 14.0 0.00 0.02 0.02 78 1006.8
20180622001917 71 292 9.0 14.0 0.00 0.02 0.02 79 1006.7
20180622001804 70 315 7.0 14.0 0.00 0.02 0.02 79 1005.8
20180622001411 71 305 8.0 14.0 0.00 0.02 0.02 78 1006.6
20180622000914 71 314 7.0 10.0 0.00 0.02 0.02 78 1006.6
20180622000413 71 324 8.0 11.0 0.00 0.02 0.02 78 1006.6
20180622000248 71 327 7.0 11.0 0.00 0.02 0.02 77 1005.6
20180621235923 71 304 8.0 11.0 0.00 0.02 0.02 76 1006.5
20180621235359 71 325 8.0 12.0 0.00 0.02 0.02 76 1006.5
20180621234913 71 342 9.0 12.0 0.00 0.02 0.02 76 1006.5
20180621234729 70 319 7.0 12.0 0.00 0.02 0.02 77 1005.6
20180621234413 71 315 9.0 12.0 0.00 0.02 0.02 76 1006.5
20180621233920 71 309 9.0 13.0 0.00 0.02 0.02 77 1006.4
20180621233405 70 314 10.0 13.0 0.00 0.02 0.02 75 1006.5
20180621233218 70 329 9.0 13.0 0.00 0.02 0.02 76 1005.6
20180621232903 71 318 10.0 15.0 0.00 0.02 0.02 75 1006.5
20180621232359 71 319 10.0 15.0 0.00 0.02 0.02 75 1006.5
20180621231900 71 317 9.0 15.0 0.00 0.02 0.02 75 1006.5
20180621231642 70 306 8.0 14.0 0.00 0.02 0.02 76 1005.6
20180621231405 71 304 9.0 14.0 0.00 0.02 0.02 75 1006.5
20180621230859 71 340 9.0 13.0 0.00 0.02 0.02 75 1006.4
20180621230557 70 323 7.0 15.0 0.00 0.02 0.02 75 1005.5
20180621230353 71 333 10.0 15.0 0.00 0.02 0.02 75 1006.4
20180621225915 71 319 11.0 16.0 0.00 0.02 0.02 75 1006.4
20180621225354 71 321 11.0 16.0 0.00 0.02 0.02 75 1006.4
20180621225012 71 323 11.0 16.0 0.00 0.02 0.02 73 1005.4
20180621224855 72 316 10.0 16.0 0.00 0.02 0.02 74 1006.4
20180621224350 72 344 9.0 16.0 0.00 0.02 0.02 72 1006.3
20180621223853 73 315 9.0 15.0 0.00 0.02 0.02 73 1006.3
20180621223417 72 5 9.0 15.0 0.00 0.02 0.02 74 1005.4
20180621223346 72 315 9.0 15.0 0.00 0.02 0.02 74 1006.3
20180621222853 72 307 9.0 15.0 0.00 0.02 0.02 77 1006.3
20180621222355 71 334 9.0 15.0 0.00 0.02 0.02 77 1006.2
20180621221847 71 323 8.0 12.0 0.00 0.02 0.02 76 1006.3
20180621221843 71 321 7.0 11.0 0.00 0.02 0.02 76 1005.4
20180621221351 71 355 9.0 12.0 0.00 0.02 0.02 76 1006.2
20180621220854 71 5 9.0 14.0 0.00 0.02 0.02 75 1006.2
20180621220348 71 339 10.0 15.0 0.00 0.02 0.02 75 1006.3
20180621220309 71 325 10.0 15.0 0.00 0.02 0.02 75 1005.3
20180621215845 71 5 9.0 15.0 0.00 0.02 0.02 76 1006.2
20180621215332 71 339 8.0 13.0 0.00 0.02 0.02 79 1006.2
20180621214823 70 14 8.0 13.0 0.00 0.02 0.02 78 1006.1
20180621214739 70 349 7.0 13.0 0.00 0.02 0.02 78 1005.2
20180621214333 70 329 9.0 15.0 0.00 0.02 0.02 78 1006.1
20180621213823 70 321 9.0 15.0 0.00 0.02 0.02 77 1006.1
20180621213321 70 330 9.0 14.0 0.00 0.02 0.02 77 1006.1
20180621213240 70 348 8.0 13.0 0.00 0.02 0.02 77 1005.1
20180621212820 70 355 11.0 14.0 0.00 0.02 0.02 77 1006.1
20180621212312 70 325 11.0 15.0 0.00 0.02 0.02 76 1006.0
20180621211825 70 329 9.0 15.0 0.00 0.02 0.02 77 1005.9
20180621211706 70 355 10.0 14.0 0.00 0.02 0.02 77 1004.9
20180621211311 70 330 8.0 13.0 0.00 0.02 0.02 78 1005.9
20180621210816 70 338 8.0 11.0 0.00 0.02 0.02 76 1005.9
20180621210318 71 343 8.0 13.0 0.00 0.02 0.02 75 1005.8
20180621210201 70 350 8.0 13.0 0.00 0.02 0.02 76 1004.8
20180621205808 71 332 9.0 13.0 0.00 0.02 0.02 78 1005.8
20180621205309 71 346 10.0 13.0 0.00 0.02 0.02 78 1005.7
20180621204801 71 344 10.0 14.0 0.00 0.02 0.02 76 1005.7
20180621204711 70 331 9.0 14.0 0.00 0.02 0.02 76 1004.6
20180621204258 70 317 9.0 14.0 0.00 0.02 0.02 77 1005.6
20180621203805 70 306 8.0 12.0 0.00 0.02 0.02 80 1005.6
20180621203710 69 317 7.0 11.0 0.00 0.02 0.02 79 1004.5
20180621203302 70 324 7.0 12.0 0.00 0.02 0.02 80 1005.6
20180621202759 69 15 8.0 14.0 0.00 0.02 0.02 82 1005.5
20180621202253 69 350 8.0 14.0 0.00 0.02 0.02 81 1005.5
20180621201807 69 5 8.0 11.0 0.00 0.02 0.02 80 1005.5
20180621201630 69 329 8.0 11.0 0.00 0.02 0.02 80 1004.4
20180621201246 69 348 8.0 12.0 0.00 0.02 0.02 79 1005.4
20180621200746 69 14 8.0 13.0 0.00 0.02 0.02 78 1005.4
20180621200248 69 351 9.0 13.0 0.00 0.02 0.02 78 1005.4
20180621200125 69 360 9.0 13.0 0.00 0.02 0.02 78 1004.3
20180621195748 69 323 8.0 13.0 0.00 0.02 0.02 80 1005.3
20180621195247 69 342 7.0 11.0 0.00 0.02 0.02 81 1005.3
20180621194741 69 25 7.0 10.0 0.00 0.02 0.02 83 1005.3
20180621194549 68 323 7.0 10.0 0.00 0.02 0.02 83 1004.1
20180621194248 69 331 7.0 10.0 0.00 0.02 0.02 83 1005.2
20180621193741 69 342 7.0 10.0 0.00 0.02 0.02 84 1005.2
20180621193236 69 9 7.0 10.0 0.00 0.02 0.02 82 1005.2
20180621193052 68 346 8.0 10.0 0.00 0.02 0.02 82 1004.1
20180621192735 69 11 7.0 11.0 0.00 0.02 0.02 83 1005.1
20180621192234 69 19 6.0 11.0 0.00 0.02 0.02 81 1005.1
20180621191733 69 0 5.0 9.0 0.00 0.02 0.02 84 1005.1
20180621191527 68 333 4.0 9.0 0.00 0.02 0.02 85 1003.9
20180621191232 69 290 5.0 8.0 0.00 0.02 0.02 85 1005.0
20180621190737 68 326 5.0 8.0 0.00 0.02 0.02 85 1005.0
20180621190241 68 0 3.0 7.0 0.00 0.02 0.02 86 1005.0
20180621190005 67 5 3.0 6.0 0.00 0.02 0.02 87 1003.8
20180621185730 68 319 3.0 6.0 0.00 0.02 0.02 87 1005.0
20180621185234 68 344 4.0 6.0 0.00 0.02 0.02 87 1004.8
20180621185005 67 5 4.0 8.0 0.00 0.02 0.02 87 1003.8
20180621184733 67 0 4.0 8.0 0.00 0.02 0.02 87 1004.8
20180621184226 67 315 3.0 8.0 0.00 0.02 0.02 89 1004.8
20180621183726 67 17 2.0 7.0 0.00 0.02 0.02 90 1004.8
20180621183422 67 33 2.0 7.0 0.00 0.02 0.02 90 1003.8
20180621183228 67 23 1.0 7.0 0.00 0.02 0.02 92 1004.8